Stations météo

Publicité
Montelimar, France (7577): Température de l'air & dewpoint: 16.07.2018 10:00:00 - 22.07.2018 10:00:00 (CEST)Montelimar, France (7577): Température de l'air 5cm: 16.07.2018 10:00:00 - 22.07.2018 10:00:00 (CEST)Montelimar, France (7577): Température de l'air -20cm & Température de l'air -100cm: 16.07.2018 10:00:00 - 22.07.2018 10:00:00 (CEST)Montelimar, France (7577): Vitesse du vent & gusts: 16.07.2018 10:00:00 - 22.07.2018 10:00:00 (CEST)Montelimar, France (7577): Direction du vent: 16.07.2018 10:00:00 - 22.07.2018 10:00:00 (CEST)Montelimar, France (7577): reduced air pressure: 16.07.2018 10:00:00 - 22.07.2018 10:00:00 (CEST)Montelimar, France (7577): visibility: 16.07.2018 10:00:00 - 22.07.2018 10:00:00 (CEST)Montelimar, France (7577): Ensoleillement: 16.07.2018 10:00:00 - 22.07.2018 10:00:00 (CEST)Montelimar, France (7577): Quantités de précipitations: 16.07.2018 10:00:00 - 22.07.2018 10:00:00 (CEST)
Date & Time tt [°C] td [°C] tt 5cm [°C] tt -20cm [°C] tt -100cm [°C] ff [km/h] ff [knt] fx [km/h] fx [knt] dd ppp [hPa] vv [km] sd [min] rr [mm]
22.07.2018 10:00:00 24,0 14,4 25,9 25,9 24,1 23 12 40 22 NNE 1012,9 20 60 0,0
22.07.2018 09:00:00 21,9 14,8 23,0 26,1 24,1 19 11 36 20 NNE 1013,2 20 60 0,0
22.07.2018 08:00:00 20,4 14,3 20,2 26,2 24,1 22 12 37 20 NNE 1013,4 20 60 0,0
22.07.2018 07:00:00 20,1 14,2 19,0 26,4 24,1 13 7 34 18 NNE 1013,2 20 20 0,0
22.07.2018 06:00:00 19,7 14,1 19,0 26,6 24,1 19 10 33 18 NNE 1013,3 20 0 0,0
22.07.2018 05:00:00 19,5 14,3 17,8 26,8 24,1 13 7 21 12 NNE 1013,4 20 0 0,0
22.07.2018 04:00:00 19,7 13,6 17,6 27,0 24,1 7 4 15 8 NNE 1013,3 20 0 0,0
22.07.2018 03:00:00 20,7 13,9 19,6 27,2 24,1 9 5 21 12 NNW 1013,2 20 0 0,0
22.07.2018 02:00:00 20,9 13,8 19,9 27,3 24,1 9 5 27 15 N 1013,4 20 0 0,0
22.07.2018 01:00:00 21,3 14,7 20,5 27,4 24,1 17 9 25 13 NNE 1013,6 20 0 0,0
22.07.2018 00:00:00 21,6 14,0 20,9 27,6 24,1 13 7 22 12 NNE 1013,1 20 0 0,0
21.07.2018 23:00:00 23,0 13,5 22,0 27,6 24,1 9 5 27 14 NNE 1012,9 20 0 0,0
21.07.2018 22:00:00 24,0 13,2 23,2 27,6 24,1 14 8 28 15 N 1012,3 20 0 0,0
21.07.2018 21:00:00 24,8 13,4 24,3 27,5 24,1 13 7 36 19 N 1011,9 20 41 0,0
21.07.2018 20:00:00 25,8 14,3 27,3 27,4 24,1 16 9 38 20 N 1011,4 20 60 0,0
21.07.2018 19:00:00 26,6 14,7 28,0 27,2 24,1 19 11 36 19 N 1010,9 20 29 0,0
21.07.2018 18:00:00 26,0 14,1 27,7 27,0 24,1 19 10 42 23 N 1011,0 20 16 0,0
21.07.2018 17:00:00 27,6 13,2 30,7 26,8 24,1 21 12 41 22 N 1011,0 20 57 0,0
21.07.2018 16:00:00 27,3 14,0 33,6 26,5 24,1 23 13 49 27 NNE 1011,2 20 60 0,0
21.07.2018 15:00:00 26,9 15,3 32,1 26,4 24,1 23 12 42 23 NNE 1011,7 20 60 0,0
21.07.2018 14:00:00 26,0 14,8 32,2 26,4 24,1 23 13 43 23 N 1012,4 20 60 0,0
21.07.2018 13:00:00 26,0 15,4 28,5 26,4 24,1 27 15 44 24 NNE 1012,9 20 46 0,0
21.07.2018 12:00:00 24,7 15,9 29,1 26,5 24,1 23 13 41 22 NNE 1012,9 20 57 0,0
21.07.2018 11:00:00 24,2 16,5 24,6 26,6 24,1 18 10 35 19 NNE 1012,7 20 57 0,0
21.07.2018 10:00:00 21,9 16,4 23,2 26,8 24,1 19 10 35 19 NNE 1012,7 20 49 0,0
21.07.2018 09:00:00 20,8 17,4 22,3 27,0 24,1 14 8 23 13 NNE 1012,6 20 46 0,0
21.07.2018 08:00:00 19,2 17,7 18,6 27,2 24,1 7 4 13 7 NE 1012,6 20 7 0,0
21.07.2018 07:00:00 18,6 16,6 18,0 27,4 24,1 6 4 18 10 N 1012,5 15 0 0,0
21.07.2018 06:00:00 18,5 16,8 18,0 27,6 24,1 5 3 9 5 N 1012,5 20 0 0,0
21.07.2018 05:00:00 18,8 17,1 18,4 27,9 24,1 3 1 7 4 S 1012,6 20 0 0,0
21.07.2018 04:00:00 18,7 16,5 18,3 28,1 24,1 5 3 12 6 N 1012,1 20 0 0,0
21.07.2018 03:00:00 19,2 16,2 18,5 28,3 24,0 8 5 21 11 NNE 1012,4 20 0 0,0
21.07.2018 02:00:00 19,1 16,9 18,4 28,5 24,0 9 5 23 13 N 1012,4 20 0 0,0
21.07.2018 01:00:00 18,9 17,0 18,3 28,8 24,0 7 4 18 10 NNW 1013,7 20 0 0,4
21.07.2018 00:00:00 19,0 17,5 18,3 28,9 24,0 9 5 31 17 NNE 1013,4 20 0 2,0
20.07.2018 23:00:00 19,9 17,1 18,5 29,0 24,0 14 8 25 13 N 1014,3 20 0 1,2
20.07.2018 22:00:00 20,5 16,7 18,8 29,0 24,0 14 8 54 29 N 1013,0 20 0 0,0
20.07.2018 21:00:00 20,7 16,9 18,7 29,0 24,0 21 11 55 30 N 1012,5 18 0 0,8
20.07.2018 20:00:00 24,5 16,2 24,5 28,8 24,0 30 16 51 28 N 1011,4 20 0 0,0
20.07.2018 19:00:00 28,9 16,5 28,6 28,5 24,0 7 4 13 7 SSW 1009,8 20 0 0,0
20.07.2018 18:00:00 30,4 16,4 30,9 28,3 24,0 5 3 15 8 SW 1009,4 20 0 0,0
20.07.2018 17:00:00 31,8 14,0 34,2 27,9 24,0 7 4 15 8 SSW 1009,8 20 0 0,0
20.07.2018 16:00:00 32,1 13,8 37,6 27,7 24,0 7 4 13 7 S 1010,6 20 51 0,0
20.07.2018 15:00:00 32,0 14,6 36,9 27,6 24,0 3 2 9 5 E 1011,4 20 55 0,0
20.07.2018 14:00:00 29,7 14,3 33,8 27,6 23,9 4 2 10 6 N 1012,5 20 43 0,0
20.07.2018 13:00:00 26,7 15,7 27,3 27,7 23,9 3 1 12 6 NE 1013,4 20 22 0,0
20.07.2018 12:00:00 23,3 16,1 23,3 27,8 23,9 3 1 9 5 WSW 1014,1 20 0 0,0
20.07.2018 11:00:00 22,4 16,7 21,6 28,0 23,9 6 3 18 10 SE 1014,1 20 0 0,0
20.07.2018 10:00:00 22,9 15,0 24,2 28,1 23,9 4 2 8 5 SSW 1014,4 20 1 0,0
20.07.2018 09:00:00 21,7 14,8 23,5 28,3 23,9 4 2 11 6 N 1014,3 20 6 0,0
20.07.2018 08:00:00 20,5 15,5 20,5 28,5 23,9 0 0 5 3 N 1013,9 20 27 0,0
20.07.2018 07:00:00 19,2 15,9 17,2 28,8 23,9 4 2 10 5 NNE 1013,9 20 20 0,0
20.07.2018 06:00:00 18,4 14,9 16,9 29,0 23,8 3 2 5 3 N 1013,6 20 0 0,0
20.07.2018 05:00:00 18,4 14,7 16,9 29,2 23,9 0 0 3 2 N 1013,7 20 0 0,0
20.07.2018 04:00:00 19,3 15,4 17,5 29,4 23,8 0 0 4 2 N 1013,6 20 0 0,0
20.07.2018 03:00:00 20,5 15,3 18,2 29,5 23,8 0 0 3 2 N 1013,6 20 0 0,0
20.07.2018 02:00:00 22,0 14,9 19,0 29,7 23,8 0 0 7 4 N 1013,8 20 0 0,0
20.07.2018 01:00:00 24,5 13,4 21,7 29,8 23,8 4 2 11 6 SE 1013,5 20 0 0,0
20.07.2018 00:00:00 27,3 13,3 24,5 29,8 23,8 8 4 16 9 NNE 1013,1 20 0 0,0
19.07.2018 23:00:00 25,7 13,2 23,1 29,8 23,8 10 5 16 8 NNE 1012,9 20 0 0,0
19.07.2018 22:00:00 26,8 13,2 24,8 29,7 23,8 7 4 12 6 N 1012,4 20 0 0,0
19.07.2018 21:00:00 28,8 14,6 26,0 29,5 23,8 4 2 14 8 N 1011,9 20 22 0,0
19.07.2018 20:00:00 31,6 12,4 34,2 29,2 23,8 10 6 24 13 NNE 1011,5 20 60 0,0
19.07.2018 19:00:00 32,8 11,9 37,9 28,9 23,7 13 7 29 16 NNE 1011,4 20 60 0,0
19.07.2018 18:00:00 33,4 12,4 39,2 28,5 23,8 15 8 29 16 NNE 1011,6 20 60 0,0
19.07.2018 17:00:00 33,5 11,9 39,8 28,2 23,8 16 9 29 16 NNE 1011,9 20 60 0,0
19.07.2018 16:00:00 33,3 11,2 39,6 27,8 23,8 16 9 29 16 NNE 1012,3 20 60 0,0
19.07.2018 15:00:00 33,0 11,5 38,8 27,5 23,7 15 8 31 17 NNE 1012,8 20 60 0,0
19.07.2018 14:00:00 32,2 10,8 37,7 27,4 23,8 19 10 36 19 NNE 1013,3 20 60 0,0
19.07.2018 13:00:00 31,3 11,1 37,4 27,3 23,7 21 11 33 18 NNE 1013,8 20 60 0,0
19.07.2018 12:00:00 30,1 13,4 34,8 27,3 23,7 17 9 30 16 NNE 1014,1 20 60 0,0
19.07.2018 11:00:00 28,3 14,2 33,2 27,4 23,7 19 10 29 16 NNE 1014,3 20 60 0,0
19.07.2018 10:00:00 25,9 14,4 30,2 27,5 23,7 16 8 28 15 N 1014,5 20 60 0,0
19.07.2018 09:00:00 24,2 13,4 26,6 27,7 23,7 16 9 30 16 N 1014,5 20 60 0,0
19.07.2018 08:00:00 22,9 13,4 22,3 27,9 23,7 15 8 30 16 N 1014,3 20 60 0,0
19.07.2018 07:00:00 22,0 13,4 21,8 28,1 23,7 16 9 27 15 N 1014,1 20 23 0,0
19.07.2018 06:00:00 22,4 12,9 22,0 28,2 23,7 16 8 27 14 NNE 1013,9 20 0 0,0
19.07.2018 05:00:00 22,5 13,6 22,3 28,4 23,7 17 9 31 17 NNE 1013,7 20 0 0,0
19.07.2018 04:00:00 23,3 13,7 22,5 28,5 23,6 14 8 28 15 NNE 1013,6 20 0 0,0
19.07.2018 03:00:00 22,8 15,1 20,6 28,7 23,7 11 6 27 15 N 1013,8 13 0 0,0
19.07.2018 02:00:00 22,6 15,4 21,0 28,8 23,6 5 3 8 5 N 1014,6 20 0 0,0
19.07.2018 01:00:00 23,8 16,6 23,0 28,8 23,7 3 2 8 4 ENE 1014,7 20 0 0,0
19.07.2018 00:00:00 24,8 15,7 23,4 28,8 23,6 4 2 8 4 SW 1015,1 20 0 0,0
18.07.2018 23:00:00 25,6 15,6 24,3 28,8 23,7 3 2 10 6 ESE 1014,6 20 0 0,0
18.07.2018 22:00:00 27,1 13,4 25,2 28,7 23,7 8 5 13 7 N 1013,6 20 0 0,0
18.07.2018 21:00:00 28,4 14,2 27,2 28,5 23,7 7 4 14 7 N 1013,0 20 23 0,0
18.07.2018 20:00:00 30,6 13,4 32,1 28,2 23,7 6 3 16 9 NNE 1012,1 20 43 0,0
18.07.2018 19:00:00 31,7 13,0 37,4 27,8 23,7 10 6 19 10 N 1012,0 20 60 0,0
18.07.2018 18:00:00 32,1 13,3 38,9 27,4 23,7 12 6 21 11 N 1012,0 20 60 0,0
18.07.2018 17:00:00 32,4 13,1 39,7 27,0 23,6 11 6 20 11 NNE 1012,6 20 60 0,0
18.07.2018 16:00:00 31,9 14,1 38,0 26,7 23,7 14 7 26 14 NNE 1013,1 20 60 0,0
18.07.2018 15:00:00 31,1 14,3 37,4 26,4 23,7 18 10 26 14 NNE 1013,7 20 60 0,0
18.07.2018 14:00:00 30,0 14,1 35,6 26,2 23,6 19 10 34 18 NNE 1014,4 20 60 0,0
18.07.2018 13:00:00 29,1 14,5 34,7 26,1 23,6 21 11 34 18 NNE 1015,0 20 60 0,0
18.07.2018 12:00:00 27,9 13,8 32,4 26,2 23,7 18 10 35 19 NNE 1015,4 20 60 0,0
18.07.2018 11:00:00 26,5 13,6 30,3 26,2 23,7 21 11 34 18 NNE 1015,8 20 60 0,0
18.07.2018 10:00:00 25,1 13,3 28,5 26,3 23,7 22 12 37 20 NNE 1016,0 20 60 0,0
18.07.2018 09:00:00 23,1 13,6 24,8 26,5 23,7 18 10 31 17 NNE 1016,4 20 60 0,0
18.07.2018 08:00:00 21,8 13,4 21,0 26,7 23,7 19 11 31 17 NNE 1016,0 20 60 0,0
18.07.2018 07:00:00 20,8 13,7 20,0 26,9 23,7 15 8 24 13 NE 1016,0 20 23 0,0
18.07.2018 06:00:00 21,0 13,4 20,1 27,0 23,7 14 7 21 11 NNE 1015,8 20 0 0,0
18.07.2018 05:00:00 21,9 13,3 21,1 27,2 23,6 16 9 30 16 N 1015,6 20 0 0,0
18.07.2018 04:00:00 22,5 13,0 21,4 27,3 23,7 10 5 30 16 NNE 1015,9 20 0 0,0
18.07.2018 03:00:00 23,2 13,7 22,0 27,5 23,7 17 9 32 17 NNE 1016,0 20 0 0,0
18.07.2018 02:00:00 23,5 13,9 22,6 27,6 23,7 17 9 34 18 N 1016,1 20 0 0,0
18.07.2018 01:00:00 24,0 14,1 23,0 27,7 23,7 13 7 28 15 NNE 1016,2 20 0 0,0
18.07.2018 00:00:00 24,8 14,0 23,7 27,7 23,7 13 7 31 17 NNE 1015,9 20 0 0,0
17.07.2018 23:00:00 26,1 13,6 25,0 27,7 23,7 13 7 31 17 N 1015,4 20 0 0,0
17.07.2018 22:00:00 27,3 13,3 26,6 27,6 23,7 18 10 41 22 N 1014,6 20 0 0,0
17.07.2018 21:00:00 28,1 13,2 27,5 27,4 23,7 16 9 29 16 NNE 1013,9 20 43 0,0
17.07.2018 20:00:00 29,3 13,5 31,8 27,1 23,8 16 9 34 18 NNE 1013,7 20 60 0,0
17.07.2018 19:00:00 30,3 12,2 34,6 26,9 23,8 18 10 35 19 N 1013,6 20 60 0,0
17.07.2018 18:00:00 31,0 12,8 35,8 26,5 23,8 19 10 45 24 NNE 1013,8 20 60 0,0
17.07.2018 17:00:00 31,1 10,4 36,3 26,1 23,8 26 14 42 23 NNE 1014,1 20 60 0,0
17.07.2018 16:00:00 31,0 12,4 36,4 25,9 23,8 24 13 49 26 NNE 1014,4 20 60 0,0
17.07.2018 15:00:00 30,4 13,7 36,1 25,6 23,8 28 15 45 25 NNE 1014,8 20 60 0,0
17.07.2018 14:00:00 29,2 15,3 34,9 25,4 23,8 24 13 41 22 NNE 1015,3 20 60 0,0
17.07.2018 13:00:00 28,4 15,7 33,1 25,3 23,9 23 12 46 25 NNE 1015,6 20 60 0,0
17.07.2018 12:00:00 27,0 15,4 32,2 25,3 23,8 27 15 47 26 NNE 1015,5 20 60 0,0
17.07.2018 11:00:00 26,2 15,3 30,0 25,3 23,9 22 12 - - NNE 1016,0 18 60 0,0
17.07.2018 10:00:00 24,8 14,6 28,3 25,4 23,8 24 13 44 24 NNE 1015,9 20 60 0,0
17.07.2018 09:00:00 24,2 14,9 27,1 25,6 23,9 13 7 32 18 NNE 1015,9 20 60 0,0
17.07.2018 08:00:00 22,8 14,1 21,3 25,8 23,9 8 5 18 10 N 1015,9 20 60 0,0
17.07.2018 07:00:00 20,8 14,0 19,6 25,9 23,9 8 4 14 7 NNE 1015,8 20 18 0,0
17.07.2018 06:00:00 21,3 13,5 19,5 26,0 23,9 9 5 17 9 N 1015,3 20 0 0,0
17.07.2018 05:00:00 21,3 13,2 20,1 26,2 23,9 9 5 22 12 N 1015,0 20 0 0,0
17.07.2018 04:00:00 22,0 13,1 20,5 26,4 23,9 10 6 21 11 N 1014,7 20 0 0,0
17.07.2018 03:00:00 21,8 12,4 20,5 26,5 23,9 8 5 14 8 N 1014,6 20 0 0,0
17.07.2018 02:00:00 23,0 12,0 21,4 26,6 23,9 6 4 24 13 NNW 1014,4 20 0 0,0
17.07.2018 01:00:00 24,1 11,4 22,8 26,7 23,9 10 6 29 16 N 1013,9 20 0 0,0
17.07.2018 00:00:00 24,4 11,7 22,7 26,8 23,9 13 7 24 13 NNE 1013,5 20 0 0,0
16.07.2018 23:00:00 24,3 11,9 23,5 26,7 23,9 10 5 26 14 NNE 1013,0 20 0 0,0
16.07.2018 22:00:00 26,0 11,4 25,2 26,7 23,9 15 8 40 22 N 1011,4 20 0 0,0
16.07.2018 21:00:00 26,8 11,7 26,4 26,7 23,9 21 11 46 25 NNW 1010,4 20 0 0,0
16.07.2018 20:00:00 28,0 13,9 28,4 26,5 23,9 16 8 34 18 NNW 1009,4 20 39 0,0
16.07.2018 19:00:00 29,2 17,7 31,1 26,4 23,9 2 1 10 5 NNW 1008,5 20 41 0,0
16.07.2018 18:00:00 28,2 18,3 30,5 26,4 23,9 4 2 12 6 SSE 1008,2 20 45 0,0
16.07.2018 17:00:00 26,7 17,2 25,8 26,4 23,9 8 4 12 7 S 1008,6 20 20 0,0
16.07.2018 16:00:00 23,8 18,2 25,8 26,5 23,9 9 5 18 10 S 1009,6 20 0 0,0
16.07.2018 15:00:00 25,1 16,8 27,2 26,5 23,9 6 3 11 6 WSW 1009,6 20 0 0,0
16.07.2018 14:00:00 24,6 16,3 25,2 26,6 23,9 6 4 21 11 N 1010,1 20 0 0,0
16.07.2018 13:00:00 22,9 16,7 23,8 26,7 23,9 7 4 15 8 NNW 1010,7 20 0 0,0
16.07.2018 12:00:00 22,2 16,9 21,0 26,8 23,9 7 4 27 14 NE 1011,3 20 0 0,0
16.07.2018 11:00:00 21,8 16,5 22,3 27,0 23,9 14 8 31 17 NNE 1011,2 20 0 0,0
16.07.2018 10:00:00 21,3 16,3 22,7 27,2 23,9 19 10 29 16 NNE 1010,8 20 8 0,0

tt = Température de l'air
td = dewpoint
tt 5cm = Température de l'air 5cm
tt -20cm = Température de l'air -20cm
tt -100cm = Température de l'air -100cm
ff = Vitesse du vent
fx = gusts
dd = Direction du vent
ppp = reduced air pressure
vv = visibility
sd = Ensoleillement
rr = Quantités de précipitations

stations d'obs. à proximité